STARLINK-5995, 56456

Orbit data source: Space-Track

STARLINK-5995, 56456 is a payload satellite owned by SpaceX/Seattle (US) in LEO that was launched on Wed, 10 May 2023 UTC via an FALCON 9 launch vehicle from the Air Force Western Test Range (AFWTR). Payload-class satellites include a variety of spacecraft equipped with specific instruments for various scientific and technological missions. These include communications satellites like Starlink; space stations such as the ISS; scientific satellites like the Hubble; Earth observation satellites from companies like Planet Labs, Umbra, and HawkEye 360; GPS; miniature CubeSats for education and research; and military/defense satellites.

Loading next visibility...
Identifier
56456, 2023-064J
Orbit
LEO
Country
Flag of USUS
Related business
Manufacturer
SpaceX/Seattle
Mission
Operational Commercial Communications
Bus & Motor
STARLINK, Unknown motor
Mass
305 kg wet, ~290 kg dry
Launch date (UTC)
2023-05-10 (3 years ago)
Launch vehicle
FALCON 9
Launch site
Air Force Western Test Range (AFWTR)
Object type
Payload
Rocket body
Debris
Shape & HBR
Box + 1 Pan, 10.1 m
Radar Cross Section
11.087 m², Large (>1 m²)

Expand to show TLE details & history
Last TLE update: 2 days ago

TLE from 2 days ago
0 STARLINK-5995
1 56456U 23064J   26171.35776162  .00000328  00000-0  35285-4 0  9995
2 56456  69.9988 245.6322 0003551 269.0302  91.0450 14.98330190170620
Epoch: 2026-06-20T08:35Z
TLE epoch observation values (Epoch: 2026-06-20T08:35:10.603Z)
Latitude
-0.00007°
Longitude
-151.73554°
Altitude
574.525 km
Speed
7.574 km/s
True Right ascension
16h 22m 31s
True Declination
0° 00' 00"
Sunlit
Object was in full shadow at epoch
Visualization orbit readout
Latitude
Unknown
Longitude
Unknown
Altitude
Unknown
Speed
Unknown
Apparent Right ascension
Unknown
Apparent Declination
Unknown
Sunlit
N/A
Visualization observer readout
Local Sidereal Time
21:31:34
Azimuth
Unknown
Elevation
Unknown
Doppler factor
Unknown
Orbital elements
Apogee altitude
572.471 km
Perigee altitude
567.536 km
Semi-major axis
6,948.141 km
Eccentricity
0.00036
Inclination
69.9988°
RAAN
245.6322°
Arg. of periapsis
269.0302°
True anomaly
91.08568°
Mean anomaly
91.045°
Eccentric anomaly
91.06534°
Mean motion
3.74749 °/min
Orbital period
96.06 mins
BSTAR
0.000035285
Loading maneuver chart data...
Computing Atmospheric mass density...
Loading historical data...
Loading historical data...
Loading historical data...
Loading historical data...
Loading historical data...
Loading historical data...
Loading historical data...

Documentation

Showing up to 5 results
|